Location: Morisset
(33.1080°S, 151.4871°E)
Time: 12:56:28
(UTC+00:00)

Resurs 01 Rocket - Pass Details

Date: 29 October 2020
Orbit: 634 x 644 km, 98.0° (Epoch: 23 November)

Event Time Altitude Azimuth Distance (km) Brightness Sun altitude
Rises 12:06:47 0° 184° (S) 2,987 5.8 -38.4°
Reaches altitude 10° 12:09:21 10° 198° (SSW) 2,067 4.9 -38.7°
Enters shadow 12:10:21 15° 207° (SSW) 1,767 4.5 -38.8°
